| time (UTC) | temp F | wind direction | speed knots | gust knots | rain 1hr in | rain 24hr in | rain mn in | humidity % | barometer mb |
| 20260505064028 | 45 | 341 | 0.9 | 3.5 | 0.00 | 0.08 | 0.00 | 86 | 1014.5 |
| 20260505063541 | 45 | 226 | 0.0 | 0.0 | 0.00 | 0.08 | 0.00 | 86 | 1014.4 |
| 20260505063040 | 45 | 226 | 0.0 | 0.0 | 0.00 | 0.08 | 0.00 | 86 | 1014.2 |
| 20260505062540 | 45 | 226 | 0.0 | 0.0 | 0.00 | 0.08 | 0.00 | 86 | 1014.0 |
| 20260505062028 | 45 | 226 | 0.0 | 0.0 | 0.00 | 0.08 | 0.00 | 85 | 1013.9 |
| 20260505061537 | 45 | 226 | 0.0 | 0.0 | 0.00 | 0.08 | 0.00 | 85 | 1013.9 |
| 20260505061038 | 45 | 226 | 0.0 | 0.0 | 0.00 | 0.08 | 0.00 | 85 | 1014.0 |
| 20260505060546 | 45 | 226 | 0.0 | 0.0 | 0.00 | 0.08 | 0.00 | 85 | 1013.9 |
| 20260505060047 | 45 | 226 | 0.0 | 0.0 | 0.00 | 0.08 | 0.00 | 85 | 1014.0 |
| 20260505055527 | 45 | 226 | 0.0 | 0.0 | 0.01 | 0.08 | 0.08 | 85 | 1014.0 |
| 20260505055028 | 45 | 226 | 0.0 | 0.0 | 0.01 | 0.08 | 0.08 | 84 | 1014.0 |
| 20260505054529 | 45 | 226 | 0.0 | 0.0 | 0.01 | 0.08 | 0.08 | 84 | 1014.0 |
| 20260505054031 | 45 | 226 | 0.0 | 0.0 | 0.01 | 0.08 | 0.08 | 84 | 1013.9 |
| 20260505053532 | 45 | 226 | 0.0 | 0.0 | 0.01 | 0.08 | 0.08 | 84 | 1013.8 |
| 20260505053034 | 45 | 226 | 0.0 | 0.0 | 0.01 | 0.08 | 0.08 | 84 | 1013.6 |
| 20260505052534 | 45 | 226 | 0.0 | 0.0 | 0.01 | 0.08 | 0.08 | 84 | 1013.6 |
| 20260505052045 | 45 | 226 | 0.0 | 0.0 | 0.01 | 0.08 | 0.08 | 84 | 1013.6 |
| 20260505051546 | 45 | 226 | 0.0 | 0.0 | 0.01 | 0.08 | 0.08 | 83 | 1013.6 |
| 20260505051049 | 45 | 226 | 0.0 | 0.0 | 0.01 | 0.08 | 0.08 | 83 | 1013.6 |
| 20260505050531 | 45 | 226 | 0.0 | 0.0 | 0.01 | 0.08 | 0.08 | 83 | 1013.6 |
| 20260505041530 | 46 | 226 | 0.0 | 0.0 | 0.01 | 0.07 | 0.07 | 82 | 1013.8 |
| 20260505041032 | 47 | 226 | 0.0 | 0.0 | 0.02 | 0.07 | 0.07 | 82 | 1013.7 |
| 20260505040606 | 47 | 226 | 0.0 | 0.0 | 0.02 | 0.07 | 0.07 | 82 | 1013.8 |
| 20260505040043 | 47 | 226 | 0.0 | 1.7 | 0.03 | 0.07 | 0.07 | 82 | 1013.7 |
| 20260505035544 | 47 | 226 | 0.0 | 0.0 | 0.03 | 0.07 | 0.07 | 82 | 1013.6 |
| 20260505035023 | 47 | 226 | 0.0 | 0.0 | 0.03 | 0.07 | 0.07 | 82 | 1013.5 |
| 20260505034525 | 48 | 226 | 0.0 | 0.0 | 0.03 | 0.07 | 0.07 | 82 | 1013.5 |
| 20260505034026 | 48 | 226 | 0.0 | 0.0 | 0.03 | 0.07 | 0.07 | 81 | 1013.6 |
| 20260505033527 | 48 | 226 | 0.0 | 0.0 | 0.04 | 0.07 | 0.07 | 81 | 1013.6 |
| 20260505033028 | 48 | 226 | 0.0 | 0.0 | 0.04 | 0.07 | 0.07 | 81 | 1013.5 |
| 20260505032529 | 48 | 226 | 0.0 | 0.0 | 0.04 | 0.07 | 0.07 | 80 | 1013.5 |
| 20260505032027 | 48 | 226 | 0.0 | 0.0 | 0.04 | 0.07 | 0.07 | 79 | 1013.4 |
| 20260505031526 | 48 | 226 | 0.0 | 0.0 | 0.03 | 0.06 | 0.06 | 79 | 1013.3 |
| 20260505031027 | 48 | 226 | 0.0 | 0.0 | 0.02 | 0.05 | 0.05 | 78 | 1013.3 |
| 20260505030529 | 49 | 226 | 0.0 | 0.0 | 0.02 | 0.05 | 0.05 | 77 | 1013.4 |
| 20260505030031 | 49 | 226 | 0.0 | 2.6 | 0.01 | 0.04 | 0.04 | 77 | 1013.2 |
| 20260505025529 | 49 | 226 | 0.0 | 3.5 | 0.01 | 0.04 | 0.04 | 76 | 1013.2 |
| 20260505025030 | 49 | 225 | 0.9 | 3.5 | 0.01 | 0.04 | 0.04 | 75 | 1013.0 |
| 20260505024556 | 49 | 225 | 0.9 | 4.3 | 0.01 | 0.04 | 0.04 | 74 | 1013.0 |
| 20260505024034 | 49 | 208 | 0.9 | 4.3 | 0.01 | 0.04 | 0.04 | 73 | 1012.9 |
| 20260505023536 | 49 | 235 | 0.0 | 2.6 | 0.00 | 0.03 | 0.03 | 73 | 1012.9 |
| 20260505023035 | 49 | 262 | 0.0 | 0.0 | 0.00 | 0.03 | 0.03 | 72 | 1012.8 |
| 20260505022606 | 49 | 282 | 0.0 | 0.0 | 0.00 | 0.03 | 0.03 | 72 | 1012.9 |
| 20260505022026 | 49 | 282 | 0.0 | 0.0 | 0.00 | 0.03 | 0.03 | 73 | 1012.8 |
| 20260505021527 | 49 | 282 | 0.0 | 0.0 | 0.00 | 0.03 | 0.03 | 73 | 1012.7 |
| 20260505021041 | 49 | 282 | 0.0 | 0.0 | 0.00 | 0.03 | 0.03 | 73 | 1012.8 |
| 20260505020536 | 49 | 282 | 0.0 | 1.7 | 0.00 | 0.03 | 0.03 | 73 | 1012.8 |
| 20260505020038 | 49 | 282 | 0.0 | 1.7 | 0.00 | 0.03 | 0.03 | 73 | 1012.8 |
| 20260505015541 | 49 | 282 | 0.0 | 0.0 | 0.00 | 0.03 | 0.03 | 72 | 1012.9 |
| 20260505015043 | 49 | 282 | 0.0 | 0.9 | 0.00 | 0.03 | 0.03 | 71 | 1012.7 |
| 20260505014524 | 49 | 282 | 0.0 | 1.7 | 0.00 | 0.03 | 0.03 | 71 | 1012.6 |
| 20260505014023 | 50 | 278 | 0.0 | 2.6 | 0.00 | 0.03 | 0.03 | 70 | 1012.6 |
| 20260505013553 | 50 | 275 | 0.0 | 2.6 | 0.00 | 0.03 | 0.03 | 69 | 1012.6 |
| 20260505013032 | 50 | 300 | 0.0 | 2.6 | 0.00 | 0.03 | 0.03 | 69 | 1012.5 |
| 20260505012531 | 50 | 307 | 0.0 | 1.7 | 0.00 | 0.03 | 0.03 | 69 | 1012.5 |
| 20260505012031 | 50 | 316 | 0.0 | 3.5 | 0.00 | 0.03 | 0.03 | 69 | 1012.6 |
| 20260505011530 | 50 | 285 | 0.0 | 3.5 | 0.00 | 0.03 | 0.03 | 69 | 1012.6 |
| 20260505011102 | 51 | 286 | 0.0 | 2.6 | 0.00 | 0.03 | 0.03 | 69 | 1012.6 |
| 20260505010544 | 51 | 289 | 0.0 | 3.5 | 0.00 | 0.03 | 0.03 | 67 | 1012.7 |
| 20260505010047 | 51 | 263 | 0.0 | 5.2 | 0.00 | 0.03 | 0.03 | 66 | 1012.7 |
| 20260505005529 | 52 | 290 | 0.9 | 5.2 | 0.00 | 0.03 | 0.03 | 64 | 1012.7 |
| 20260505005030 | 52 | 282 | 0.0 | 4.3 | 0.00 | 0.03 | 0.03 | 64 | 1012.6 |
| 20260505004529 | 53 | 289 | 0.0 | 6.1 | 0.00 | 0.03 | 0.03 | 62 | 1012.6 |
| 20260505004029 | 54 | 291 | 1.7 | 6.1 | 0.00 | 0.03 | 0.03 | 60 | 1012.6 |
| 20260505003530 | 54 | 288 | 0.9 | 5.2 | 0.00 | 0.03 | 0.03 | 59 | 1012.6 |
| 20260505003039 | 55 | 306 | 0.0 | 0.0 | 0.00 | 0.03 | 0.03 | 59 | 1012.5 |
| 20260505002541 | 55 | 306 | 0.0 | 0.0 | 0.00 | 0.03 | 0.03 | 59 | 1012.3 |
| 20260505002023 | 55 | 306 | 0.0 | 2.6 | 0.00 | 0.03 | 0.03 | 57 | 1012.2 |
| 20260505001523 | 55 | 306 | 0.0 | 3.5 | 0.00 | 0.03 | 0.03 | 58 | 1012.2 |
| 20260505001023 | 55 | 336 | 0.0 | 3.5 | 0.00 | 0.03 | 0.03 | 58 | 1012.2 |
| 20260505000528 | 56 | 253 | 0.0 | 0.0 | 0.00 | 0.03 | 0.03 | 61 | 1012.2 |
| 20260505000030 | 56 | 253 | 0.0 | 0.0 | 0.01 | 0.03 | 0.03 | 61 | 1012.1 |
| 20260504235534 | 56 | 253 | 0.0 | 0.0 | 0.02 | 0.03 | 0.03 | 61 | 1012.2 |
| 20260504235035 | 56 | 253 | 0.0 | 0.0 | 0.02 | 0.03 | 0.03 | 61 | 1012.1 |
| 20260504234534 | 56 | 253 | 0.0 | 0.0 | 0.02 | 0.03 | 0.03 | 60 | 1011.9 |
| 20260504234035 | 56 | 253 | 0.0 | 0.0 | 0.02 | 0.03 | 0.03 | 64 | 1011.8 |
| 20260504233535 | 55 | 253 | 0.0 | 0.0 | 0.02 | 0.03 | 0.03 | 64 | 1011.9 |
| 20260504233109 | 55 | 238 | 0.0 | 0.0 | 0.02 | 0.03 | 0.03 | 67 | 1011.8 |
| 20260504232549 | 55 | 238 | 0.0 | 0.0 | 0.02 | 0.03 | 0.03 | 68 | 1011.9 |
| 20260504232030 | 54 | 238 | 0.0 | 0.0 | 0.02 | 0.03 | 0.03 | 68 | 1012.1 |
| 20260504231531 | 53 | 237 | 0.0 | 0.0 | 0.02 | 0.03 | 0.03 | 66 | 1012.1 |
| 20260504231037 | 53 | 237 | 0.0 | 1.7 | 0.02 | 0.03 | 0.03 | 66 | 1012.3 |
| 20260504230536 | 53 | 237 | 0.0 | 2.6 | 0.02 | 0.03 | 0.03 | 63 | 1012.3 |
| 20260504230033 | 55 | 268 | 0.0 | 4.3 | 0.01 | 0.02 | 0.02 | 59 | 1012.2 |
| 20260504225533 | 56 | 282 | 1.7 | 4.3 | 0.00 | 0.01 | 0.01 | 53 | 1012.2 |
| 20260504225035 | 58 | 278 | 0.0 | 4.3 | 0.00 | 0.01 | 0.01 | 48 | 1011.9 |
| 20260504224532 | 58 | 284 | 0.0 | 1.7 | 0.00 | 0.01 | 0.01 | 42 | 1011.7 |
| 20260504224105 | 59 | 284 | 0.0 | 1.7 | 0.00 | 0.01 | 0.01 | 41 | 1011.6 |
| 20260504223524 | 59 | 316 | 0.0 | 0.9 | 0.00 | 0.01 | 0.01 | 41 | 1011.4 |
| 20260504223034 | 59 | 316 | 0.0 | 2.6 | 0.00 | 0.01 | 0.01 | 41 | 1011.3 |
| 20260504222535 | 59 | 332 | 0.0 | 2.6 | 0.00 | 0.01 | 0.01 | 41 | 1011.1 |
| 20260504222037 | 59 | 339 | 0.0 | 1.7 | 0.00 | 0.01 | 0.01 | 42 | 1011.2 |
| 20260504221546 | 60 | 344 | 0.0 | 3.5 | 0.00 | 0.01 | 0.01 | 42 | 1011.1 |
| 20260504221042 | 60 | 345 | 0.0 | 3.5 | 0.00 | 0.01 | 0.01 | 43 | 1010.9 |
| 20260504220523 | 60 | 336 | 0.0 | 2.6 | 0.01 | 0.01 | 0.01 | 44 | 1010.7 |
| 20260504220023 | 60 | 12 | 0.0 | 6.1 | 0.01 | 0.01 | 0.01 | 45 | 1010.5 |
| 20260504215524 | 60 | 34 | 0.9 | 6.1 | 0.01 | 0.01 | 0.01 | 46 | 1010.4 |
| 20260504215027 | 60 | 33 | 0.9 | 5.2 | 0.01 | 0.01 | 0.01 | 48 | 1010.6 |
| 20260504214528 | 60 | 348 | 0.0 | 5.2 | 0.01 | 0.01 | 0.01 | 50 | 1010.8 |
| 20260504214026 | 60 | 16 | 0.9 | 3.5 | 0.01 | 0.01 | 0.01 | 49 | 1011.0 |
| 20260504213527 | 59 | 24 | 0.9 | 2.6 | 0.01 | 0.01 | 0.01 | 51 | 1011.1 |
| 20260504213036 | 58 | 36 | 0.0 | 0.9 | 0.01 | 0.01 | 0.01 | 55 | 1011.4 |
| 20260504212536 | 57 | 39 | 0.0 | 2.6 | 0.01 | 0.01 | 0.01 | 54 | 1011.9 |
| 20260504212038 | 57 | 66 | 0.0 | 2.6 | 0.01 | 0.01 | 0.01 | 50 | 1012.1 |
| 20260504211539 | 57 | 327 | 0.0 | 5.2 | 0.01 | 0.01 | 0.01 | 48 | 1012.2 |
| 20260504211039 | 57 | 255 | 0.0 | 5.2 | 0.01 | 0.01 | 0.01 | 45 | 1012.4 |
| 20260504210535 | 58 | 303 | 0.0 | 6.1 | 0.00 | 0.00 | 0.00 | 45 | 1012.4 |
| 20260504210038 | 59 | 334 | 0.9 | 4.3 | 0.00 | 0.00 | 0.00 | 44 | 1012.2 |
| 20260504205538 | 59 | 316 | 0.0 | 4.3 | 0.00 | 0.00 | 0.00 | 42 | 1012.0 |
| 20260504205040 | 60 | 336 | 0.9 | 7.8 | 0.00 | 0.00 | 0.00 | 39 | 1011.9 |
| 20260504204543 | 60 | 327 | 0.0 | 7.8 | 0.00 | 0.00 | 0.00 | 38 | 1011.7 |
| 20260504204024 | 60 | 305 | 0.0 | 8.7 | 0.00 | 0.00 | 0.00 | 39 | 1011.4 |
| 20260504203526 | 61 | 302 | 0.0 | 8.7 | 0.00 | 0.00 | 0.00 | 39 | 1011.3 |
| 20260504203040 | 62 | 326 | 1.7 | 9.6 | 0.00 | 0.00 | 0.00 | 36 | 1010.9 |
| 20260504202541 | 63 | 343 | 2.6 | 13.9 | 0.00 | 0.00 | 0.00 | 31 | 1010.6 |
| 20260504202044 | 63 | 11 | 5.2 | 13.9 | 0.00 | 0.00 | 0.00 | 30 | 1010.4 |
| 20260504201546 | 64 | 310 | 1.7 | 11.3 | 0.00 | 0.00 | 0.00 | 28 | 1010.4 |
| 20260504201048 | 66 | 3 | 2.6 | 11.3 | 0.00 | 0.00 | 0.00 | 26 | 1010.5 |
| 20260504200531 | 69 | 329 | 0.9 | 7.8 | 0.00 | 0.00 | 0.00 | 22 | 1010.6 |
| 20260504200033 | 69 | 349 | 0.9 | 3.5 | 0.00 | 0.00 | 0.00 | 22 | 1010.3 |
| 20260504195526 | 70 | 338 | 0.0 | 3.5 | 0.00 | 0.00 | 0.00 | 23 | 1010.4 |
| 20260504195028 | 70 | 262 | 0.0 | 8.7 | 0.00 | 0.00 | 0.00 | 23 | 1010.4 |
| 20260504194539 | 71 | 296 | 1.7 | 8.7 | 0.00 | 0.00 | 0.00 | 23 | 1010.3 |
| 20260504194040 | 72 | 297 | 0.9 | 7.0 | 0.00 | 0.00 | 0.00 | 24 | 1010.3 |
| 20260504193543 | 73 | 314 | 0.9 | 7.8 | 0.00 | 0.00 | 0.00 | 24 | 1010.3 |
| 20260504193044 | 73 | 305 | 1.7 | 9.6 | 0.00 | 0.00 | 0.00 | 21 | 1010.3 |
| 20260504192546 | 73 | 278 | 0.9 | 8.7 | 0.00 | 0.00 | 0.00 | 22 | 1010.3 |
| 20260504192047 | 73 | 289 | 1.7 | 9.6 | 0.00 | 0.00 | 0.00 | 23 | 1010.3 |
| 20260504191526 | 72 | 272 | 0.0 | 6.1 | 0.00 | 0.00 | 0.00 | 22 | 1010.2 |
| 20260504191025 | 71 | 249 | 0.9 | 8.7 | 0.00 | 0.00 | 0.00 | 22 | 1010.3 |
| 20260504190525 | 70 | 280 | 1.7 | 12.2 | 0.00 | 0.00 | 0.00 | 23 | 1010.3 |
| 20260504190027 | 70 | 263 | 1.7 | 12.2 | 0.00 | 0.00 | 0.00 | 22 | 1010.4 |
| 20260504185531 | 71 | 244 | 2.6 | 9.6 | 0.00 | 0.00 | 0.00 | 22 | 1010.4 |
| 20260504185033 | 70 | 239 | 2.6 | 9.6 | 0.00 | 0.00 | 0.00 | 23 | 1010.4 |
| 20260504184531 | 71 | 217 | 4.3 | 9.6 | 0.00 | 0.00 | 0.00 | 23 | 1010.4 |
| 20260504184031 | 71 | 230 | 1.7 | 13.0 | 0.00 | 0.00 | 0.00 | 23 | 1010.5 |
| 20260504183602 | 70 | 239 | 3.5 | 13.0 | 0.00 | 0.00 | 0.00 | 24 | 1010.6 |
| 20260504183023 | 70 | 282 | 1.7 | 12.2 | 0.00 | 0.00 | 0.00 | 24 | 1010.7 |
| 20260504182544 | 69 | 270 | 5.2 | 12.2 | 0.00 | 0.00 | 0.00 | 24 | 1010.7 |
| 20260504182044 | 69 | 211 | 2.6 | 13.0 | 0.00 | 0.00 | 0.00 | 25 | 1010.9 |
| 20260504181544 | 69 | 286 | 3.5 | 11.3 | 0.00 | 0.00 | 0.00 | 24 | 1010.9 |
| 20260504181043 | 68 | 247 | 3.5 | 10.4 | 0.00 | 0.00 | 0.00 | 25 | 1011.0 |
| 20260504180543 | 68 | 247 | 1.7 | 9.6 | 0.00 | 0.00 | 0.00 | 25 | 1011.0 |
| 20260504180044 | 67 | 223 | 3.5 | 9.6 | 0.00 | 0.00 | 0.00 | 26 | 1011.0 |
| 20260504175550 | 67 | 286 | 2.6 | 9.6 | 0.00 | 0.00 | 0.00 | 27 | 1011.2 |
| 20260504175029 | 66 | 274 | 1.7 | 8.7 | 0.00 | 0.00 | 0.00 | 27 | 1011.2 |
| 20260504174529 | 66 | 222 | 0.0 | 3.5 | 0.00 | 0.00 | 0.00 | 28 | 1011.4 |
| 20260504174028 | 65 | 274 | 0.9 | 3.5 | 0.00 | 0.00 | 0.00 | 27 | 1011.4 |
| 20260504173526 | 65 | 268 | 0.9 | 3.5 | 0.00 | 0.00 | 0.00 | 29 | 1011.5 |
| 20260504173023 | 64 | 228 | 0.9 | 2.6 | 0.00 | 0.00 | 0.00 | 29 | 1011.6 |
| 20260504172524 | 64 | 243 | 0.0 | 7.0 | 0.00 | 0.00 | 0.00 | 29 | 1011.6 |
| 20260504172024 | 64 | 227 | 3.5 | 7.0 | 0.00 | 0.00 | 0.00 | 29 | 1011.5 |
| 20260504171526 | 63 | 220 | 0.9 | 4.3 | 0.00 | 0.00 | 0.00 | 30 | 1011.5 |
| 20260504171027 | 63 | 202 | 0.9 | 6.1 | 0.00 | 0.00 | 0.00 | 30 | 1011.5 |
| 20260504170528 | 63 | 219 | 0.9 | 6.1 | 0.00 | 0.00 | 0.00 | 30 | 1011.5 |
| 20260504151044 | 53 | 136 | 0.0 | 0.0 | 0.00 | 0.00 | 0.00 | 47 | 1011.7 |
| 20260504150543 | 52 | 104 | 0.0 | 0.0 | 0.00 | 0.00 | 0.00 | 48 | 1011.7 |
| 20260504141031 | 46 | 354 | 0.0 | 0.0 | 0.00 | 0.00 | 0.00 | 56 | 1011.8 |
| 20260504140601 | 45 | 354 | 0.0 | 0.0 | 0.00 | 0.00 | 0.00 | 56 | 1011.8 |
| 20260504130543 | 36 | 354 | 0.0 | 0.0 | 0.00 | 0.00 | 0.00 | 63 | 1011.9 |
| 20260504110548 | 36 | 354 | 0.0 | 0.0 | 0.00 | 0.00 | 0.00 | 58 | 1012.1 |
| 20260504100603 | 38 | 354 | 0.0 | 0.0 | 0.00 | 0.00 | 0.00 | 54 | 1012.3 |
| 20260504081526 | 41 | 354 | 0.0 | 0.0 | 0.00 | 0.00 | 0.00 | 52 | 1012.8 |
| 20260504081024 | 41 | 354 | 0.0 | 0.0 | 0.00 | 0.00 | 0.00 | 52 | 1012.9 |
| 20260504080524 | 41 | 354 | 0.0 | 0.0 | 0.00 | 0.00 | 0.00 | 51 | 1013.0 |